This is the latest recevied weather packets stored in our database for station/object AI5KP-13. If no packets are shown the sender has not sent any weather packets the latest 10 day(s).
| Time | Temp. | Humidity | Pressure | Rain* | Wind** | Luminosity | Snow |
|---|---|---|---|---|---|---|---|
| 1777205232 | 17.22° C | 82% | 1009 hPa | 0 mm | - | 31 W/m² | - |
| 1777204928 | 17.22° C | 83% | 1009 hPa | 0 mm | - | 27 W/m² | - |
| 1777204623 | 16.67° C | 84% | 1008.9 hPa | 0 mm | - | 22 W/m² | - |
| 1777204318 | 16.67° C | 84% | 1008.9 hPa | 0 mm | - | 18 W/m² | - |
| 1777204016 | 16.67° C | 84% | 1009 hPa | 0 mm | - | 14 W/m² | - |
| 1777203715 | 16.67° C | 84% | 1008.9 hPa | 0 mm | - | 10 W/m² | - |
| 1777203410 | 16.67° C | 84% | 1008.9 hPa | 0 mm | - | 7 W/m² | - |
| 1777203107 | 16.67° C | 85% | 1008.9 hPa | 0 mm | - | 4 W/m² | - |
| 1777202804 | 16.67° C | 84% | 1008.9 hPa | 0 mm | - | 2 W/m² | - |
| 1777202503 | 17.22° C | 84% | 1008.9 hPa | 0 mm | - | 1 W/m² | - |
| 1777202202 | 17.22° C | 83% | 1008.8 hPa | 0 mm | - | 0 W/m² | - |
| 1777201898 | 16.67° C | 84% | 1008.9 hPa | 0 mm | - | 0 W/m² | - |
| 1777201596 | 16.67° C | 83% | 1008.7 hPa | 0 mm | - | 0 W/m² | - |
| 1777201292 | 16.67° C | 84% | 1008.8 hPa | 0 mm | - | 0 W/m² | - |
| 1777200986 | 16.67° C | 85% | 1008.4 hPa | 0 mm | - | 0 W/m² | - |
| 1777200684 | 16.67° C | 85% | 1008.4 hPa | 0 mm | - | 0 W/m² | - |
| 1777200382 | 16.67° C | 85% | 1008.5 hPa | 0 mm | - | 0 W/m² | - |
| 1777200080 | 16.67° C | 85% | 1008.5 hPa | 0 mm | - | 0 W/m² | - |
| 1777199775 | 16.67° C | 85% | 1008.2 hPa | 0 mm | - | 0 W/m² | - |
| 1777199471 | 16.11° C | 87% | 1008.3 hPa | 0 mm | - | 0 W/m² | - |
| 1777199166 | 16.67° C | 86% | 1008.6 hPa | 0 mm | - | 0 W/m² | - |
| 1777198860 | 16.11° C | 87% | 1008.3 hPa | 0 mm | - | 0 W/m² | - |
| 1777198557 | 16.11° C | 87% | 1008.3 hPa | 0 mm | - | 0 W/m² | - |
| 1777198256 | 15.56° C | 89% | 1008.4 hPa | 0 mm | - | 0 W/m² | - |
| 1777197955 | 15.56° C | 89% | 1008.3 hPa | 0 mm | - | 0 W/m² | - |
* Rain latest hour (hover to see other rain measurements)
** Current wind speed in m/s (hover to see current wind gust speed)